KA5ZCI Weather Reports


time (UTC)temp
C
wind
direction
speed
KPH
gust
KPH
rain 1hr
cm
rain 24hr
cm
rain mn
cm
humidity
%
barometer
mb
20260505052004 17 83 0.0 0.0 0.00 0.00 0.00 82 1013.9
20260505051503 17 83 0.0 0.0 0.00 0.00 0.00 81 1013.9
20260505051004 17 83 0.0 1.6 0.00 0.00 0.00 81 1013.8
20260505050504 17 138 0.0 1.6 0.00 0.00 0.00 81 1013.7
20260505041504 17 86 0.0 1.6 0.00 0.00 0.00 78 1014.3
20260505041004 17 130 0.0 1.6 0.00 0.00 0.00 76 1014.4
20260505040503 17 121 1.6 4.8 0.00 0.00 0.00 76 1014.4
20260505040004 18 138 3.2 8.0 0.00 0.00 0.00 75 1014.4
20260505035504 18 159 3.2 4.8 0.00 0.00 0.00 75 1014.4
20260505034503 18 127 1.6 4.8 0.00 0.00 0.00 73 1014.6
20260505034004 18 152 1.6 4.8 0.00 0.00 0.00 72 1014.4
20260505033003 18 132 1.6 4.8 0.00 0.00 0.00 71 1014.4
20260505032504 18 147 3.2 8.0 0.00 0.00 0.00 70 1014.4
20260505032004 18 179 3.2 4.8 0.00 0.00 0.00 70 1014.3
20260505031004 18 148 1.6 8.0 0.00 0.00 0.00 70 1014.1
20260505030004 18 148 3.2 8.0 0.00 0.00 0.00 69 1014.2
20260505025503 18 150 3.2 9.7 0.00 0.00 0.00 69 1014.2
20260505025004 18 129 3.2 8.0 0.00 0.00 0.00 69 1014.3
20260505024503 18 137 3.2 4.8 0.00 0.00 0.00 68 1014.3
20260505023004 18 163 3.2 8.0 0.00 0.00 0.00 67 1014.3
20260505022504 18 161 3.2 8.0 0.00 0.00 0.00 66 1014.2
20260505021503 18 101 3.2 8.0 0.00 0.00 0.00 67 1014.1
20260505021004 19 132 4.8 11.3 0.00 0.00 0.00 66 1014.1
20260505020504 19 107 3.2 8.0 0.00 0.00 0.00 65 1014.2
20260505020004 19 147 4.8 8.0 0.00 0.00 0.00 65 1014.2
20260505014504 19 148 4.8 8.0 0.00 0.00 0.00 63 1014.0
20260505014004 19 154 3.2 4.8 0.00 0.00 0.00 63 1013.8
20260505013504 20 154 4.8 9.7 0.00 0.00 0.00 62 1013.8
20260505012504 20 153 4.8 11.3 0.00 0.00 0.00 60 1013.8
20260505012004 20 165 4.8 11.3 0.00 0.00 0.00 60 1013.9
20260505011504 20 182 3.2 8.0 0.00 0.00 0.00 59 1014.0
20260505011004 20 180 4.8 11.3 0.00 0.00 0.00 58 1013.8
20260505010503 20 159 3.2 8.0 0.00 0.00 0.00 58 1013.8
20260505010004 20 171 4.8 11.3 0.00 0.00 0.00 58 1013.8
20260505005504 21 160 4.8 9.7 0.00 0.00 0.00 56 1013.7
20260505005004 21 163 4.8 9.7 0.00 0.00 0.00 56 1013.8
20260505004504 21 134 4.8 9.7 0.00 0.00 0.00 55 1014.0
20260505004004 21 129 3.2 4.8 0.00 0.00 0.00 55 1014.2
20260505003504 21 156 3.2 8.0 0.00 0.00 0.00 54 1014.1
20260505003004 21 175 3.2 8.0 0.00 0.00 0.00 52 1014.0
20260505002004 22 155 4.8 9.7 0.00 0.00 0.00 50 1014.2
20260505001003 22 157 3.2 8.0 0.00 0.00 0.00 49 1014.2
20260505000504 22 171 4.8 9.7 0.00 0.00 0.00 48 1014.2
20260504235504 23 182 3.2 9.7 0.00 0.00 0.00 45 1014.2
20260504235004 23 191 3.2 9.7 0.00 0.00 0.00 44 1014.1
20260504234504 23 174 3.2 9.7 0.00 0.00 0.00 42 1014.2
20260504234003 23 196 8.0 12.9 0.00 0.00 0.00 41 1014.4
20260504233504 23 173 4.8 11.3 0.00 0.00 0.00 42 1014.5
20260504233004 23 144 9.7 16.1 0.00 0.00 0.00 42 1014.6
20260504232504 23 170 4.8 12.9 0.00 0.00 0.00 44 1014.7
20260504232003 23 135 8.0 16.1 0.00 0.00 0.00 44 1014.7
20260504231504 23 155 6.4 11.3 0.00 0.00 0.00 44 1014.6
20260504231004 24 134 6.4 19.3 0.00 0.00 0.00 44 1014.6
20260504224504 24 153 9.7 20.9 0.00 0.00 0.00 42 1014.6
20260504224004 24 164 8.0 14.5 0.00 0.00 0.00 43 1014.7
20260504223504 25 133 6.4 16.1 0.00 0.00 0.00 42 1014.8
20260504223004 25 125 6.4 16.1 0.00 0.00 0.00 42 1014.8
20260504222004 25 145 8.0 16.1 0.00 0.00 0.00 41 1015.0
20260504221504 25 133 11.3 20.9 0.00 0.00 0.00 40 1015.1
20260504221004 25 115 3.2 11.3 0.00 0.00 0.00 41 1015.2
20260504220504 25 179 8.0 19.3 0.00 0.00 0.00 39 1015.2
20260504220003 26 147 8.0 16.1 0.00 0.00 0.00 40 1015.3
20260504215004 26 182 11.3 20.9 0.00 0.00 0.00 38 1015.2
20260504214505 26 139 3.2 19.3 0.00 0.00 0.00 39 1015.2
20260504214004 26 158 9.7 19.3 0.00 0.00 0.00 38 1015.1
20260504213504 26 179 8.0 16.1 0.00 0.00 0.00 37 1015.2
20260504213004 26 141 8.0 16.1 0.00 0.00 0.00 37 1015.3
20260504212504 26 158 6.4 12.9 0.00 0.00 0.00 38 1015.3
20260504211004 26 157 8.0 14.5 0.00 0.00 0.00 36 1015.6
20260504210504 26 224 9.7 19.3 0.00 0.00 0.00 35 1015.7
20260504210004 26 152 4.8 12.9 0.00 0.00 0.00 38 1015.3
20260504205504 26 200 9.7 16.1 0.00 0.00 0.00 37 1015.4
20260504204504 26 239 9.7 19.3 0.00 0.00 0.00 36 1015.5
20260504204004 26 177 9.7 20.9 0.00 0.00 0.00 36 1015.6
20260504203504 26 159 6.4 16.1 0.00 0.00 0.00 35 1015.7
20260504203003 26 157 9.7 14.5 0.00 0.00 0.00 36 1015.8
20260504202504 26 263 8.0 12.9 0.00 0.00 0.00 36 1015.9
20260504202004 26 190 9.7 19.3 0.00 0.00 0.00 37 1016.0
20260504201503 26 183 8.0 12.9 0.00 0.00 0.00 39 1016.0
20260504201004 26 164 9.7 20.9 0.00 0.00 0.00 38 1016.2
20260504200003 26 34 8.0 16.1 0.00 0.00 0.00 37 1016.4
20260504195003 26 223 6.4 22.5 0.00 0.00 0.00 37 1016.6
20260504194504 26 233 9.7 20.9 0.00 0.00 0.00 36 1016.7
20260504194003 26 181 4.8 19.3 0.00 0.00 0.00 39 1016.7
20260504193504 26 170 11.3 20.9 0.00 0.00 0.00 37 1016.7
20260504193004 26 179 4.8 11.3 0.00 0.00 0.00 37 1016.8
20260504192004 26 267 9.7 14.5 0.00 0.00 0.00 37 1016.8
20260504191504 26 147 8.0 16.1 0.00 0.00 0.00 37 1017.0
20260504191004 26 174 11.3 22.5 0.00 0.00 0.00 38 1016.9
20260504185504 26 89 8.0 11.3 0.00 0.00 0.00 38 1017.0
20260504185004 26 145 8.0 22.5 0.00 0.00 0.00 37 1017.2
20260504184503 26 134 3.2 16.1 0.00 0.00 0.00 36 1017.0
20260504184004 26 187 4.8 12.9 0.00 0.00 0.00 36 1017.2
20260504183504 26 250 9.7 14.5 0.00 0.00 0.00 35 1017.4
20260504183004 26 212 9.7 20.9 0.00 0.00 0.00 37 1017.5
20260504182504 26 212 6.4 14.5 0.00 0.00 0.00 37 1017.5
20260504182004 25 149 9.7 20.9 0.00 0.00 0.00 36 1017.5
20260504181503 25 158 9.7 20.9 0.00 0.00 0.00 37 1017.5
20260504181004 25 165 8.0 14.5 0.00 0.00 0.00 37 1017.6
20260504180503 25 202 11.3 20.9 0.00 0.00 0.00 37 1017.6
20260504180004 25 202 9.7 14.5 0.00 0.00 0.00 38 1017.6
20260504175504 25 198 9.7 20.9 0.00 0.00 0.00 37 1017.5
20260504175003 25 132 6.4 12.9 0.00 0.00 0.00 39 1017.6
20260504173004 25 93 8.0 19.3 0.00 0.05 0.00 36 1017.8
20260504172004 25 161 9.7 12.9 0.00 0.05 0.00 37 1017.7
20260504171504 25 165 8.0 16.1 0.00 0.08 0.00 38 1017.7
20260504170504 25 184 11.3 20.9 0.00 0.10 0.00 36 1017.9
20260504150504 22 103 1.6 8.0 0.00 0.10 0.00 55 1018.7
20260504141003 21 301 0.0 3.2 0.00 0.10 0.00 73 1019.0
20260504140504 20 309 0.0 3.2 0.00 0.10 0.00 72 1018.8
20260504130504 17 274 0.0 0.0 0.00 0.10 0.00 86 1018.9
20260504110504 11 192 0.0 0.0 0.00 0.10 0.00 96 1017.9
20260504100504 11 192 0.0 0.0 0.00 0.10 0.00 96 1018.0
20260504082004 11 192 0.0 0.0 0.00 0.10 0.00 95 1017.9
20260504081504 11 192 0.0 0.0 0.00 0.10 0.00 95 1018.0
20260504080504 12 192 0.0 0.0 0.00 0.10 0.00 95 1017.8